Weather History for West Plains, MO

Change the Weather History Date:

Friday, November 9, 2012

  Actual Average Record
Temperature  
Mean Temperature 56 °F 50 °F  
Max Temperature 68 °F 60 °F 81 °F (1980)
Min Temperature 43 °F 39 °F 7 °F (1991)
Degree Days  
Heating Degree Days 9 16  
Month to date heating degree days 146 127  
Since 1 July heating degree days 514 430  
Cooling Degree Days 0 0  
Month to date cooling degree days 0 0  
Year to date cooling degree days 1739 1352  
Growing Degree Days 5 (Base 50)    
Moisture  
Dew Point 45 °F    
Average Humidity 67    
Maximum Humidity 76    
Minimum Humidity 57    
Precipitation  
Precipitation 0.00 in 0.14 in 1.70 in (1966)
Month to date precipitation 0.31 1.25  
Year to date precipitation 28.57 39.25  
Sea Level Pressure  
Sea Level Pressure 30.05 in    
Wind  
Wind Speed 10 mph (South)    
Max Wind Speed 17 mph    
Max Gust Speed 24 mph    
Visibility 10 miles    
Events      
T = Trace of Precipitation, MM = Missing Value Source: NWS Daily Summary

Daily Weather History Graph

Daily Weather History Graph

Search for Another Location

Airport:

Trip Planner

Search our weather history database for the weather conditions in past years. The results will help you decide how hot, cold, wet, or windy it might be!

Date:

Astronomy

Nov. 09, 2012 Rise Set
Actual Time 6:40 AM CST 5:02 PM CST
Civil Twilight 6:12 AM CST 5:29 PM CST
Nautical Twilight 5:41 AM CST 6:00 PM CST
Astronomical Twilight 5:11 AM CST 6:31 PM CST
Moon 1:46 AM CST (11/9) 2:09 PM CST (11/9)
Length of Visible Light 11h 16m
Length of Day
10h 22m
Waning Crescent, 23% of the Moon is Illuminated
Nov 9
Waning Crescent
Nov 13
New
Nov 20
First Quarter
Nov 28
Full
Dec 6
Last Quarter

Hourly Weather History & Observations

Time (CST) Temp. Windchill Dew Point Humidity Pressure Visibility Wind Dir Wind Speed Gust Speed Precip Events Conditions
12:53 AM 45.0 °F 42.6 °F 37.9 °F 76% 30.10 in 10.0 mi SSE 4.6 mph - N/A   Clear
1:53 AM 44.1 °F 42.5 °F 37.0 °F 76% 30.09 in 10.0 mi ESE 3.5 mph - N/A   Clear
2:53 AM 45.0 °F 41.2 °F 37.9 °F 76% 30.09 in 10.0 mi South 6.9 mph - N/A   Clear
3:53 AM 46.0 °F 43.9 °F 37.9 °F 73% 30.08 in 10.0 mi South 4.6 mph - N/A   Clear
4:53 AM 45.0 °F 41.8 °F 37.9 °F 76% 30.09 in 10.0 mi SSE 5.8 mph - N/A   Clear
5:53 AM 46.0 °F 43.1 °F 37.9 °F 73% 30.09 in 10.0 mi South 5.8 mph - N/A   Clear
6:53 AM 46.0 °F 42.5 °F 37.9 °F 73% 30.09 in 10.0 mi SSE 6.9 mph - N/A   Clear
7:53 AM 46.0 °F 42.5 °F 37.9 °F 73% 30.10 in 10.0 mi South 6.9 mph - N/A   Clear
8:53 AM 52.0 °F - 42.1 °F 69% 30.09 in 10.0 mi South 6.9 mph - N/A   Clear
9:53 AM 60.1 °F - 48.9 °F 67% 30.08 in 10.0 mi SSW 13.8 mph 24.2 mph N/A   Clear
10:53 AM 63.0 °F - 52.0 °F 67% 30.07 in 10.0 mi South 15.0 mph 21.9 mph N/A   Clear
11:53 AM 66.0 °F - 54.0 °F 65% 30.04 in 10.0 mi SSW 15.0 mph 20.7 mph N/A   Partly Cloudy
12:53 PM 66.9 °F - 54.0 °F 63% 30.02 in 10.0 mi South 16.1 mph 21.9 mph N/A   Clear
1:53 PM 66.0 °F - 54.0 °F 65% 30.00 in 10.0 mi South 11.5 mph 17.3 mph N/A   Clear
2:53 PM 66.9 °F - 52.0 °F 59% 29.99 in 10.0 mi South 15.0 mph 21.9 mph N/A   Clear
3:53 PM 66.9 °F - 51.1 °F 57% 29.99 in 10.0 mi South 12.7 mph 21.9 mph N/A   Clear
4:53 PM 64.0 °F - 51.1 °F 63% 29.98 in 10.0 mi SSE 6.9 mph - N/A   Clear
5:53 PM 63.0 °F - 51.1 °F 65% 30.00 in 10.0 mi South 10.4 mph - N/A   Clear
6:53 PM 61.0 °F - 52.0 °F 72% 30.01 in 10.0 mi South 10.4 mph - N/A   Clear
7:53 PM 60.1 °F - 48.0 °F 64% 30.02 in 10.0 mi South 12.7 mph 19.6 mph N/A   Clear
8:53 PM 59.0 °F - 45.0 °F 60% 30.03 in 10.0 mi South 10.4 mph 18.4 mph N/A   Clear
9:53 PM 57.9 °F - 44.1 °F 60% 30.03 in 10.0 mi South 13.8 mph 20.7 mph N/A   Clear
10:53 PM 57.9 °F - 43.0 °F 58% 30.02 in 10.0 mi South 11.5 mph - N/A   Clear
11:53 PM 55.9 °F - 42.1 °F 60% 30.03 in 10.0 mi South 8.1 mph - N/A   Clear